EW9452 Weather Reports


Display with metric or nautical units.
time (UTC)temp
F
wind
direction
speed
MPH
gust
MPH
rain 1hr
in
rain 24hr
in
rain mn
in
humidity
%
barometer
mb
20190326180513 78 228 1.0 6.0 0.00 0.00 0.00 65 1016.3
20190326180026 77 228 1.0 6.0 0.00 0.00 0.00 66 1016.4
20190326175512 77 225 0.0 5.0 0.00 0.00 0.00 67 1016.4
20190326175012 77 283 2.0 5.0 0.00 0.00 0.00 68 1016.4
20190326174524 77 244 0.0 5.0 0.00 0.00 0.00 68 1016.5
20190326174011 76 258 2.0 6.0 0.00 0.00 0.00 68 1016.5
20190326173511 77 287 2.0 6.0 0.00 0.00 0.00 67 1016.6
20190326173026 78 139 0.0 6.0 0.00 0.00 0.00 67 1016.5
20190326172511 78 262 3.0 6.0 0.00 0.00 0.00 65 1016.6
20190326172010 78 210 1.0 6.0 0.00 0.00 0.00 65 1016.7
20190326171507 79 234 1.0 6.0 0.00 0.00 0.00 64 1016.7
20190326171002 78 238 2.0 6.0 0.00 0.00 0.00 65 1016.7
20190326170502 78 152 1.0 6.0 0.00 0.00 0.00 64 1016.6
20190326170007 78 351 1.0 6.0 0.00 0.00 0.00 63 1016.6
20190326165503 78 252 1.0 6.0 0.00 0.00 0.00 66 1016.8
20190326165002 78 266 1.0 5.0 0.00 0.00 0.00 63 1016.7
20190326164741 78 356 0.0 7.0 0.00 0.00 0.00 63 1016.8
20190326164100 77 219 0.0 7.0 0.00 0.00 0.00 65 1016.8
20190326163604 77 218 1.0 4.0 0.00 0.00 0.00 66 1017.0
20190326163240 77 224 1.0 3.0 0.00 0.00 0.00 65 1017.0
20190326162558 77 154 0.0 8.0 0.00 0.00 0.00 66 1017.0
20190326162059 77 167 1.0 8.0 0.00 0.00 0.00 65 1017.1
20190326161650 77 227 1.0 7.0 0.00 0.00 0.00 66 1017.2
20190326161059 77 314 1.0 5.0 0.00 0.00 0.00 66 1017.2
20190326160558 76 266 2.0 6.0 0.00 0.00 0.00 68 1017.3
20190326160214 76 228 2.0 4.0 0.00 0.00 0.00 68 1017.2
20190326155558 76 263 1.0 5.0 0.00 0.00 0.00 66 1017.2
20190326155052 76 310 1.0 5.0 0.00 0.00 0.00 69 1017.2
20190326154614 75 271 0.0 5.0 0.00 0.00 0.00 69 1017.4
20190326154051 75 230 2.0 5.0 0.00 0.00 0.00 72 1017.3
20190326153550 74 225 1.0 5.0 0.00 0.00 0.00 71 1017.4
20190326153112 75 229 1.0 5.0 0.00 0.00 0.00 70 1017.4
20190326152550 75 259 1.0 6.0 0.00 0.00 0.00 71 1017.4
20190326152050 74 230 1.0 6.0 0.00 0.00 0.00 72 1017.4
20190326151614 75 228 0.0 5.0 0.00 0.00 0.00 73 1017.4
20190326151047 73 284 1.0 7.0 0.00 0.00 0.00 76 1017.4
20190326150553 73 248 2.0 7.0 0.00 0.00 0.00 76 1017.3
20190326150137 74 276 1.0 5.0 0.00 0.00 0.00 75 1017.4
20190326145551 74 224 1.0 4.0 0.00 0.00 0.00 75 1017.4
20190326145046 74 270 1.0 4.0 0.00 0.00 0.00 77 1017.4
20190326144643 73 225 0.0 4.0 0.00 0.00 0.00 78 1017.4
20190326144046 73 226 1.0 4.0 0.00 0.00 0.00 77 1017.3
20190326143545 73 321 0.0 4.0 0.00 0.00 0.00 77 1017.3
20190326143211 73 227 0.0 4.0 0.00 0.00 0.00 77 1017.3
20190326142544 73 300 1.0 3.0 0.00 0.00 0.00 78 1017.2
20190326142050 72 238 0.0 5.0 0.00 0.00 0.00 81 1017.2
20190326141700 72 233 1.0 5.0 0.00 0.00 0.00 79 1017.2
20190326141044 73 190 2.0 5.0 0.00 0.00 0.00 78 1017.2
20190326140546 73 214 0.0 4.0 0.00 0.00 0.00 80 1017.2
20190326140126 72 208 0.0 4.0 0.00 0.00 0.00 81 1017.2
20190326135543 72 240 0.0 2.0 0.00 0.00 0.00 83 1017.2
20190326135039 71 224 0.0 3.0 0.00 0.00 0.00 84 1017.2
20190326134653 71 267 0.0 5.0 0.00 0.00 0.00 83 1017.2
20190326134038 72 264 0.0 2.0 0.00 0.00 0.00 85 1017.2
20190326133536 71 210 0.0 2.0 0.00 0.00 0.00 86 1017.1
20190326133143 71 220 0.0 1.0 0.00 0.00 0.00 88 1017.0
20190326132535 70 220 0.0 1.0 0.00 0.00 0.00 90 1017.1
20190326132038 69 220 0.0 1.0 0.00 0.00 0.00 91 1017.1
20190326131601 68 220 0.0 1.0 0.00 0.00 0.00 92 1017.1
20190326131037 67 220 0.0 0.0 0.00 0.00 0.00 94 1017.0
20190326130529 66 220 0.0 0.0 0.00 0.00 0.00 95 1017.0
20190326130116 65 220 0.0 0.0 0.00 0.00 0.00 96 1017.0
20190326125530 64 220 0.0 0.0 0.00 0.00 0.00 97 1017.0
20190326125028 62 220 0.0 0.0 0.00 0.00 0.00 97 1017.0
20190326124636 61 220 0.0 0.0 0.00 0.00 0.00 97 1017.0
20190326124026 59 220 0.0 0.0 0.00 0.00 0.00 97 1017.0
20190326123523 58 220 0.0 0.0 0.00 0.00 0.00 97 1017.0
20190326123051 57 220 0.0 0.0 0.00 0.00 0.00 97 1016.9
20190326122526 57 220 0.0 0.0 0.00 0.00 0.00 97 1016.9
20190326122024 57 220 0.0 0.0 0.00 0.00 0.00 97 1016.9
20190326121537 56 220 0.0 0.0 0.00 0.00 0.00 97 1016.9
20190326121028 55 220 0.0 0.0 0.00 0.00 0.00 97 1016.9
20190326120521 54 220 0.0 0.0 0.00 0.00 0.00 97 1016.9
20190326120044 53 220 0.0 0.0 0.00 0.00 0.00 97 1016.9
20190326115524 53 220 0.0 0.0 0.00 0.00 0.00 97 1016.8
20190326115021 53 220 0.0 0.0 0.00 0.00 0.00 97 1016.8
20190326114556 53 220 0.0 0.0 0.00 0.00 0.00 97 1016.8
20190326114022 53 220 0.0 0.0 0.00 0.00 0.00 97 1016.9
20190326113520 53 220 0.0 0.0 0.00 0.00 0.00 97 1016.9
20190326113050 53 220 0.0 0.0 0.00 0.00 0.00 97 1016.9
20190326112519 53 220 0.0 0.0 0.00 0.00 0.00 97 1016.8
20190326112019 53 220 0.0 0.0 0.00 0.00 0.00 97 1016.9
20190326111539 53 220 0.0 0.0 0.00 0.00 0.00 97 1016.8
20190326111022 53 220 0.0 0.0 0.00 0.00 0.00 97 1016.8
20190326110518 53 220 0.0 0.0 0.00 0.00 0.00 97 1016.8
20190326110022 53 220 0.0 0.0 0.00 0.00 0.00 97 1016.8
20190326105518 53 220 0.0 0.0 0.00 0.00 0.00 97 1016.8
20190326105017 53 220 0.0 0.0 0.00 0.00 0.00 97 1016.8
20190326104530 53 220 0.0 0.0 0.00 0.00 0.00 97 1016.7
20190326104022 53 220 0.0 0.0 0.00 0.00 0.00 97 1016.7
20190326103519 53 220 0.0 0.0 0.00 0.00 0.00 97 1016.6
20190326103039 53 220 0.0 0.0 0.00 0.00 0.00 97 1016.6
20190326102516 53 220 0.0 0.0 0.00 0.00 0.00 97 1016.7
20190326102017 53 220 0.0 0.0 0.00 0.00 0.00 97 1016.6
20190326101609 53 220 0.0 0.0 0.00 0.00 0.00 97 1016.6
20190326101016 53 220 0.0 0.0 0.00 0.00 0.00 96 1016.6
20190326100515 53 220 0.0 0.0 0.00 0.00 0.00 96 1016.7
20190326100029 53 220 0.0 0.0 0.00 0.00 0.00 96 1016.6
20190326095516 54 220 0.0 0.0 0.00 0.00 0.00 96 1016.4
20190326095018 54 220 0.0 0.0 0.00 0.00 0.00 97 1016.4
20190326094528 54 220 0.0 0.0 0.00 0.00 0.00 97 1016.4
20190326094013 54 220 0.0 0.0 0.00 0.00 0.00 97 1016.3
20190326093517 54 220 0.0 0.0 0.00 0.00 0.00 97 1016.3
20190326093020 54 220 0.0 0.0 0.00 0.00 0.00 97 1016.3
20190326092511 54 220 0.0 0.0 0.00 0.00 0.00 96 1016.4
20190326092010 54 220 0.0 0.0 0.00 0.00 0.00 96 1016.4
20190326091516 54 220 0.0 0.0 0.00 0.00 0.00 97 1016.4
20190326091009 54 220 0.0 0.0 0.00 0.00 0.00 96 1016.5
20190326090508 55 220 0.0 0.0 0.00 0.00 0.00 96 1016.5
20190326090012 55 220 0.0 0.0 0.00 0.00 0.00 96 1016.5
20190326085507 55 220 0.0 0.0 0.00 0.00 0.00 96 1016.5
20190326085009 55 220 0.0 0.0 0.00 0.00 0.00 96 1016.4
20190326084528 55 220 0.0 0.0 0.00 0.00 0.00 96 1016.5
20190326084008 55 220 0.0 0.0 0.00 0.00 0.00 96 1016.4
20190326083506 55 220 0.0 0.0 0.00 0.00 0.00 96 1016.5
20190326083007 55 220 0.0 0.0 0.00 0.00 0.00 96 1016.6
20190326082504 56 220 0.0 0.0 0.00 0.00 0.00 96 1016.6
20190326082007 56 220 0.0 0.0 0.00 0.00 0.00 96 1016.5
20190326081504 56 220 0.0 0.0 0.00 0.00 0.00 96 1016.5
20190326081005 56 220 0.0 0.0 0.00 0.00 0.00 96 1016.5
20190326080501 56 220 0.0 0.0 0.00 0.00 0.00 96 1016.6
20190326075600 56 220 0.0 0.0 0.00 0.00 0.00 96 1016.7
20190326075102 56 220 0.0 0.0 0.00 0.00 0.00 96 1016.7
20190326074635 56 220 0.0 0.0 0.00 0.00 0.00 96 1016.7
20190326074106 56 220 0.0 0.0 0.00 0.00 0.00 96 1016.8
20190326073609 56 220 0.0 0.0 0.00 0.00 0.00 96 1016.8
20190326073154 56 220 0.0 0.0 0.00 0.00 0.00 96 1016.9
20190326072558 56 220 0.0 0.0 0.00 0.00 0.00 96 1016.8
20190326072058 56 220 0.0 0.0 0.00 0.00 0.00 96 1016.8
20190326071749 56 220 0.0 0.0 0.00 0.00 0.00 96 1016.8
20190326071056 56 220 0.0 0.0 0.00 0.00 0.00 96 1016.8
20190326070556 57 220 0.0 0.0 0.00 0.00 0.00 96 1016.9
20190326070229 57 220 0.0 0.0 0.00 0.00 0.00 96 1016.9
20190326065553 57 220 0.0 0.0 0.00 0.00 0.00 96 1016.9
20190326065052 57 220 0.0 0.0 0.00 0.00 0.00 96 1016.9
20190326064818 57 220 0.0 0.0 0.00 0.00 0.00 96 1016.9
20190326064055 57 220 0.0 0.0 0.00 0.00 0.00 96 1016.9
20190326063147 57 220 0.0 0.0 0.00 0.00 0.00 96 1017.0
20190326062554 57 220 0.0 0.0 0.00 0.00 0.00 96 1017.0
20190326062055 58 220 0.0 0.0 0.00 0.00 0.00 96 1017.1
20190326061748 58 220 0.0 0.0 0.00 0.00 0.00 96 1017.0
20190326061048 58 220 0.0 0.0 0.00 0.00 0.00 96 1017.1
20190326060548 58 220 0.0 0.0 0.00 0.00 0.00 96 1017.1
20190326060115 58 220 0.0 0.0 0.00 0.00 0.00 96 1017.1
20190326055547 58 220 0.0 0.0 0.00 0.00 0.00 96 1017.3
20190326055047 58 220 0.0 0.0 0.00 0.00 0.00 96 1017.3
20190326054619 58 220 0.0 0.0 0.00 0.00 0.00 96 1017.3
20190326054052 59 220 0.0 0.0 0.00 0.00 0.00 96 1017.3
20190326053545 59 220 0.0 0.0 0.00 0.00 0.00 96 1017.3
20190326053116 59 220 0.0 0.0 0.00 0.00 0.00 96 1017.4
20190326052550 59 220 0.0 0.0 0.00 0.00 0.00 96 1017.4
20190326052050 59 220 0.0 0.0 0.00 0.00 0.00 96 1017.4
20190326051607 59 220 0.0 0.0 0.00 0.00 0.00 96 1017.4
20190326051046 59 220 0.0 0.0 0.00 0.00 0.00 96 1017.4
20190326050542 59 220 0.0 0.0 0.00 0.00 0.00 96 1017.3
20190326050140 59 220 0.0 0.0 0.00 0.00 0.00 96 1017.3
20190326045542 59 220 0.0 0.0 0.00 0.00 0.00 95 1017.1
20190326045047 59 220 0.0 0.0 0.00 0.00 0.00 96 1017.1
20190326044550 59 220 0.0 0.0 0.00 0.00 0.00 96 1017.3
20190326044047 59 220 0.0 0.0 0.00 0.00 0.00 96 1017.4
20190326043540 59 220 0.0 0.0 0.00 0.00 0.00 96 1017.5
20190326043138 59 220 0.0 0.0 0.00 0.00 0.00 95 1017.4
20190326042542 59 220 0.0 0.0 0.00 0.00 0.00 95 1017.4
20190326042037 60 220 0.0 0.0 0.00 0.00 0.00 95 1017.5
20190326041551 60 220 0.0 0.0 0.00 0.00 0.00 95 1017.5
20190326041040 60 220 0.0 0.0 0.00 0.00 0.00 95 1017.5
20190326040542 60 220 0.0 0.0 0.00 0.00 0.00 95 1017.4
20190326040116 60 220 0.0 0.0 0.00 0.00 0.00 95 1017.5
20190326035541 60 220 0.0 0.0 0.00 0.00 0.00 95 1017.6
20190326035044 60 220 0.0 0.0 0.00 0.00 0.00 95 1017.7
20190326034629 60 220 0.0 0.0 0.00 0.00 0.00 95 1017.7
20190326034036 60 220 0.0 0.0 0.00 0.00 0.00 95 1017.8
20190326033539 60 220 0.0 0.0 0.00 0.00 0.00 95 1017.8
20190326033100 61 220 0.0 0.0 0.00 0.00 0.00 95 1017.8
20190326032533 61 220 0.0 0.0 0.00 0.00 0.00 95 1017.9
20190326032035 61 220 0.0 0.0 0.00 0.00 0.00 95 1017.9
20190326031559 61 220 0.0 0.0 0.00 0.00 0.00 95 1017.8
20190326031033 61 220 0.0 0.0 0.00 0.00 0.00 94 1017.8
20190326030533 61 220 0.0 0.0 0.00 0.00 0.00 95 1017.7
20190326030050 61 220 0.0 0.0 0.00 0.00 0.00 95 1017.7
20190326025533 61 220 0.0 0.0 0.00 0.00 0.00 95 1017.8
20190326025038 62 220 0.0 0.0 0.00 0.00 0.00 95 1017.8
20190326024612 62 220 0.0 0.0 0.00 0.00 0.00 95 1017.7
20190326024034 62 220 0.0 0.0 0.00 0.00 0.00 94 1017.7
20190326023535 62 220 0.0 0.0 0.00 0.00 0.00 94 1017.7
20190326023052 62 220 0.0 0.0 0.00 0.00 0.00 94 1017.7
20190326022532 62 220 0.0 0.0 0.00 0.00 0.00 94 1017.7
20190326022034 62 220 0.0 0.0 0.00 0.00 0.00 94 1017.7
20190326021605 62 220 0.0 0.0 0.00 0.00 0.00 94 1017.6
20190326021034 62 220 0.0 0.0 0.00 0.00 0.00 94 1017.6
20190326020532 63 220 0.0 0.0 0.00 0.00 0.00 94 1017.5
20190326020051 63 220 0.0 0.0 0.00 0.00 0.00 94 1017.5
20190326015535 63 220 0.0 0.0 0.00 0.00 0.00 93 1017.4
20190326015035 63 220 0.0 0.0 0.00 0.00 0.00 93 1017.4
20190326014551 63 220 0.0 0.0 0.00 0.00 0.00 93 1017.4
20190326014031 64 220 0.0 0.0 0.00 0.00 0.00 93 1017.3
20190326013532 64 220 0.0 0.0 0.00 0.00 0.00 93 1017.1
20190326013101 64 220 0.0 0.0 0.00 0.00 0.00 93 1017.1
20190326012534 64 220 0.0 0.0 0.00 0.00 0.00 92 1017.1
20190326012035 64 220 0.0 0.0 0.00 0.00 0.00 92 1017.1
20190326011031 65 220 0.0 0.0 0.00 0.00 0.00 92 1017.2
20190326010531 65 220 0.0 0.0 0.00 0.00 0.00 91 1017.1
20190326010051 65 220 0.0 0.0 0.00 0.00 0.00 91 1017.1
20190326005532 65 220 0.0 0.0 0.00 0.00 0.00 91 1017.1
20190326005033 65 220 0.0 0.0 0.00 0.00 0.00 91 1017.0
20190326004611 66 220 0.0 0.0 0.00 0.00 0.00 90 1017.0
20190326004028 66 220 0.0 0.0 0.00 0.00 0.00 90 1017.0
20190326003528 66 220 0.0 0.0 0.00 0.00 0.00 90 1017.0
20190326003040 66 220 0.0 0.0 0.00 0.00 0.00 89 1017.0
20190326002530 67 220 0.0 0.0 0.00 0.00 0.00 89 1016.9
20190326002034 67 220 0.0 0.0 0.00 0.00 0.00 88 1017.0
20190326001616 67 220 0.0 1.0 0.00 0.00 0.00 88 1017.0
20190326001029 68 220 0.0 1.0 0.00 0.00 0.00 87 1017.1
20190326000532 68 220 0.0 0.0 0.00 0.00 0.00 87 1017.1
20190326000056 68 220 0.0 0.0 0.00 0.00 0.00 86 1017.1
20190325235530 69 220 0.0 1.0 0.00 0.00 0.00 85 1017.0
20190325235026 69 220 0.0 0.0 0.00 0.00 0.00 84 1017.0
20190325234603 69 220 0.0 1.0 0.00 0.00 0.00 83 1016.9
20190325234026 70 220 0.0 3.0 0.00 0.00 0.00 83 1016.9
20190325233529 70 220 0.0 3.0 0.00 0.00 0.00 82 1016.9
20190325233031 70 227 0.0 2.0 0.00 0.00 0.00 82 1016.9
20190325232525 71 226 0.0 3.0 0.00 0.00 0.00 80 1017.0
20190325232029 71 227 0.0 3.0 0.00 0.00 0.00 79 1016.9
20190325231537 71 214 0.0 1.0 0.00 0.00 0.00 79 1016.9
20190325231024 71 256 0.0 3.0 0.00 0.00 0.00 78 1017.0
20190325230527 72 240 0.0 3.0 0.00 0.00 0.00 77 1017.0
20190325230033 72 226 0.0 3.0 0.00 0.00 0.00 77 1016.9
20190325225527 73 281 0.0 3.0 0.00 0.00 0.00 76 1017.0
20190325225025 73 214 0.0 2.0 0.00 0.00 0.00 76 1017.1
20190325224610 73 214 0.0 3.0 0.00 0.00 0.00 75 1017.1
20190325224028 74 241 0.0 5.0 0.00 0.00 0.00 74 1017.1
20190325223521 74 226 1.0 5.0 0.00 0.00 0.00 73 1017.2
20190325223032 75 283 1.0 5.0 0.00 0.00 0.00 72 1017.3
20190325222525 75 257 0.0 4.0 0.00 0.00 0.00 71 1017.4
20190325222021 75 224 0.0 5.0 0.00 0.00 0.00 70 1017.4
20190325221553 76 223 0.0 3.0 0.00 0.00 0.00 69 1017.4
20190325221026 76 222 0.0 5.0 0.00 0.00 0.00 68 1017.4
20190325220525 76 257 1.0 5.0 0.00 0.00 0.00 66 1017.5
20190325220042 77 226 0.0 3.0 0.00 0.00 0.00 65 1017.5
20190325215524 78 219 0.0 7.0 0.00 0.00 0.00 63 1017.4
20190325215020 77 236 0.0 7.0 0.00 0.00 0.00 63 1017.4
20190325214539 78 103 0.0 7.0 0.00 0.00 0.00 63 1017.4
20190325214019 78 245 1.0 7.0 0.00 0.00 0.00 61 1017.4
20190325213519 79 219 1.0 8.0 0.00 0.00 0.00 60 1017.5
20190325213033 79 222 1.0 8.0 0.00 0.00 0.00 58 1017.5
20190325212522 79 121 0.0 4.0 0.00 0.00 0.00 59 1017.5
20190325212020 79 309 1.0 4.0 0.00 0.00 0.00 57 1017.4
20190325211538 80 222 1.0 6.0 0.00 0.00 0.00 56 1017.4
20190325211017 81 205 1.0 5.0 0.00 0.00 0.00 56 1017.4
20190325210516 80 226 0.0 8.0 0.00 0.00 0.00 56 1017.4
20190325210056 81 219 1.0 8.0 0.00 0.00 0.00 55 1017.4
20190325205516 81 246 0.0 5.0 0.00 0.00 0.00 54 1017.5
20190325205016 81 251 1.0 5.0 0.00 0.00 0.00 54 1017.5
20190325204547 81 217 0.0 6.0 0.00 0.00 0.00 54 1017.5
20190325204015 82 218 0.0 6.0 0.00 0.00 0.00 53 1017.7
20190325203515 82 291 0.0 4.0 0.00 0.00 0.00 52 1017.7
20190325203015 82 224 0.0 7.0 0.00 0.00 0.00 52 1017.7
20190325202513 83 283 2.0 7.0 0.00 0.00 0.00 50 1017.9
20190325202014 83 153 0.0 7.0 0.00 0.00 0.00 53 1017.9
20190325201525 82 229 2.0 7.0 0.00 0.00 0.00 52 1018.0
20190325201011 82 315 0.0 5.0 0.00 0.00 0.00 52 1017.9
20190325200510 82 102 0.0 10.0 0.00 0.00 0.00 50 1017.9
20190325200034 82 235 2.0 10.0 0.00 0.00 0.00 49 1018.0
20190325195511 83 211 1.0 7.0 0.00 0.00 0.00 50 1018.1
20190325195010 83 200 2.0 7.0 0.00 0.00 0.00 49 1018.1
20190325194513 82 215 2.0 6.0 0.00 0.00 0.00 50 1018.2
20190325194010 83 257 2.0 6.0 0.00 0.00 0.00 50 1018.3
20190325193508 83 200 1.0 7.0 0.00 0.00 0.00 50 1018.3
20190325193015 82 240 2.0 7.0 0.00 0.00 0.00 49 1018.3
20190325192507 83 220 1.0 9.0 0.00 0.00 0.00 52 1018.2
20190325192008 82 240 0.0 9.0 0.00 0.00 0.00 52 1018.3
20190325191506 83 224 2.0 7.0 0.00 0.00 0.00 51 1018.4
20190325191005 83 214 2.0 8.0 0.00 0.00 0.00 52 1018.4
20190325190508 83 47 1.0 8.0 0.00 0.00 0.00 53 1018.4
20190325190019 83 219 1.0 6.0 0.00 0.00 0.00 51 1018.5
20190325185504 83 240 0.0 5.0 0.00 0.00 0.00 54 1018.5
20190325185004 82 231 1.0 6.0 0.00 0.00 0.00 55 1018.7
20190325184501 82 276 1.0 7.0 0.00 0.00 0.00 56 1018.7
20190325184001 82 251 2.0 6.0 0.00 0.00 0.00 53 1018.8
20190325183603 82 227 2.0 6.0 0.00 0.00 0.00 55 1018.8
20190325183233 82 225 0.0 6.0 0.00 0.00 0.00 58 1018.8
20190325182559 82 217 1.0 9.0 0.00 0.00 0.00 58 1018.9
20190325182058 82 295 2.0 9.0 0.00 0.00 0.00 57 1019.0
20190325181641 82 295 1.0 5.0 0.00 0.00 0.00 58 1019.0
20190325181057 82 208 2.0 5.0 0.00 0.00 0.00 58 1019.0